Flag for Ethiopia Weather past 2 weeks in Addis Ababa, Ethiopia


Partly sunny.

Feels Like: N/A
Forecast: 43 / 74 °F
Wind: 16 mph from Southeast

Location: Addis Ababa Airport

Current Time: Nov 28, 2015 at 5:09:59 PM

Latest Report: Nov 28, 2015 at 4:00 PM

Visibility: N/A

Pressure: 30.33 "Hg

Humidity: N/A

Dew point: N/A

Location of Addis AbabaLocation

Historic Weather in Addis Ababa — Graph


Addis Ababa temperature yesterday

Maximum temperature yesterday: 72 °F (at 4:00 PM)
Minimum temperature yesterday: 55 °F (at 4:00 AM)
Average temperature yesterday: 61 °F

Past Weeks' High & Low Weather Summary

High77 °F (Nov 25, 3:00 PM)88% (Nov 17, 3:00 AM)30.45 "Hg (Nov 17, 3:00 AM)
Low50 °F (Nov 16, 6:00 AM)29% (Nov 15, 1:00 PM)30.18 "Hg (Nov 25, 3:00 PM)
Average63 °F59%30.32 "Hg
* Reported Nov 13 5:00 PM — Nov 28 4:00 PM, Addis Ababa, Weather by CustomWeather, © 2015

Note: Actual official high and low records may vary slightly from our data, if they occured in-between our weather recording intervals... More about our weather records


Addis Ababa weather history for previous 24 hours

Time TempWeatherWind HumidityBarometerVisibility
4:00 PM
Sat, Nov 28
N/APartly sunny.16 mphN/A30.33 "HgN/A
3:00 PM73 °FPartly sunny.16 mph53%30.36 "HgN/A
1:00 PM70 °FPartly sunny.18 mph60%30.36 "HgN/A
11:00 AM66 °FPartly sunny.9 mph73%30.42 "HgN/A
10:00 AM64 °FPartly sunny.9 mph73%30.45 "HgN/A
9:00 AM63 °FPartly sunny.7 mph64%30.45 "HgN/A
7:00 AM55 °FScattered clouds.3 mph77%30.42 "HgN/A
6:00 AM55 °FPassing clouds.2 mph72%30.39 "HgN/A
5:00 AM57 °FPassing clouds.3 mph63%30.39 "HgN/A
4:00 AM57 °FPassing clouds.No wind63%30.36 "HgN/A
3:00 AM57 °FPassing clouds.5 mph63%30.36 "HgN/A
2:00 AM57 °FPassing clouds.7 mph63%30.36 "HgN/A
12:00 AM59 °FPassing clouds.7 mph63%30.42 "HgN/A
11:00 PM
Fri, Nov 27
61 °FPassing clouds.9 mph59%30.42 "HgN/A
10:00 PM61 °FPassing clouds.9 mph63%30.39 "HgN/A
9:00 PM61 °FPassing clouds.12 mph63%30.39 "HgN/A
6:00 PM66 °FScattered clouds.16 mph60%30.33 "HgN/A
5:00 PM68 °FScattered clouds.16 mph49%30.30 "HgN/A
Weather by CustomWeather, © 2015

See weather overviewHow to use our weather pages